Christmas Island, Australian Islands

4:44 PM CXT on August 28, 2016 (GMT +0700)
Christmas Island

Weather History for 96995 - March, 2013

Change the Weather History Date:

Saturday, March 2, 2013

  Actual Average Record
Temperature  
Mean Temperature 80 °F -  
Max Temperature 82 °F 79 °F - ()
Min Temperature 77 °F 71 °F - ()
Cooling Degree Days 14    
Growing Degree Days 30 (Base 50)    
Moisture  
Dew Point 76 °F    
Average Humidity 87    
Maximum Humidity 100    
Minimum Humidity 76    
Precipitation  
Precipitation 0.01 in - - ()
Sea Level Pressure  
Sea Level Pressure 29.79 in    
Wind  
Wind Speed 9 mph ()    
Max Wind Speed 13 mph    
Max Gust Speed 24 mph    
Visibility 6.2 miles    
Events Rain    
T = Trace of Precipitation, MM = Missing Value Source: Averaged Metar Reports

Daily Weather History Graph

Daily Weather History Graph

Search for Another Location

Airport or City:

Trip Planner

Search our weather history database for the weather conditions in past years. The results will help you decide how hot, cold, wet, or windy it might be!

Date:

Astronomy

Mar. 02, 2013 Rise Set
Actual Time 6:00 AM CXT 6:17 PM CXT
Civil Twilight 5:39 AM CXT 6:39 PM CXT
Nautical Twilight 5:14 AM CXT 7:03 PM CXT
Astronomical Twilight 4:49 AM CXT 7:28 PM CXT
Moon 9:41 PM CXT (3/2) 9:37 AM CXT (3/2)
Length of Visible Light 12h 59m
Length of Day
12h 17m
Waning Gibbous, 79% of the Moon is Illuminated
Mar 2
Waning Gibbous
Mar 5
Last Quarter
Mar 12
New
Mar 20
First Quarter
Mar 27
Full

Hourly Weather History & Observations

Time (CXT) Temp. Heat Index Dew Point Humidity Pressure Visibility Wind Dir Wind Speed Gust Speed Precip Events Conditions
12:00 AM 78 °F - 77 °F 96% 29.75 in - WNW 8.1 mph - -   Overcast
12:00 AM 78.8 °F - 77.0 °F 94% 29.80 in 6.2 mi WNW 8.1 mph - N/A   Overcast
1:00 AM 78 °F - 76 °F 91% 29.75 in - WNW 10.4 mph - -  
1:00 AM 77.0 °F - 75.2 °F 94% 29.80 in 6.2 mi WNW 10.4 mph - N/A   Overcast
2:00 AM 77.0 °F - 77.0 °F 100% 29.77 in 6.2 mi WNW 9.2 mph - N/A   Overcast
3:00 AM 77 °F - 76 °F 96% 29.73 in - WNW 10.4 mph - -   Overcast
3:00 AM 77.0 °F - 77.0 °F 100% 29.77 in - WNW 10.4 mph 21.9 mph N/A   Overcast
4:00 AM 78 °F - 75 °F 89% 29.73 in - WNW 10.4 mph - -  
4:00 AM 77.0 °F - 75.2 °F 94% 29.77 in 6.2 mi WNW 10.4 mph - N/A   Mostly Cloudy
5:00 AM 78.8 °F - 75.2 °F 89% 29.77 in - WNW 10.4 mph - N/A   Overcast
6:00 AM 78 °F - 75 °F 87% 29.74 in - WNW 10.4 mph - -   Overcast
6:00 AM 78.8 °F - 75.2 °F 89% 29.77 in 6.2 mi WNW 10.4 mph - N/A   Mostly Cloudy
7:00 AM 78.8 °F - 75.2 °F 89% 29.80 in 6.2 mi WNW 10.4 mph - N/A   Overcast
8:00 AM 80.6 °F 86.2 °F 75.2 °F 84% 29.83 in 6.2 mi WNW 10.4 mph - N/A   Mostly Cloudy
9:00 AM 80 °F - 76 °F 84% 29.81 in - WNW 10.4 mph - -   Overcast
9:00 AM 80.6 °F 86.2 °F 75.2 °F 84% 29.83 in 6.2 mi WNW 10.4 mph - N/A   Mostly Cloudy
10:00 AM 81 °F - 76 °F 80% 29.80 in - WNW 11.5 mph - -  
10:00 AM 80.6 °F 86.2 °F 75.2 °F 84% 29.83 in 6.2 mi WNW 11.5 mph - N/A   Mostly Cloudy
10:04 AM 82.4 °F 89.5 °F 75.2 °F 79% 29.83 in 6.2 mi WNW 12.7 mph - N/A   Scattered Clouds
11:00 AM 82.4 °F 90.9 °F 77.0 °F 84% 29.83 in 6.2 mi WNW 12.7 mph - N/A   Scattered Clouds
11:19 AM 82.4 °F 90.9 °F 77.0 °F 84% 29.83 in 6.2 mi WNW 10.4 mph - N/A   Mostly Cloudy
12:00 PM 82 °F - 76 °F 76% 29.80 in - WNW 12.7 mph - -   Overcast
12:00 PM 82.4 °F 89.5 °F 75.2 °F 79% 29.83 in 6.2 mi WNW 12.7 mph - N/A   Mostly Cloudy
1:00 PM 82 °F - 76 °F 77% 29.77 in - WNW 12.7 mph - -  
1:00 PM 82.4 °F 89.5 °F 75.2 °F 79% 29.80 in 6.2 mi WNW 12.7 mph - N/A   Mostly Cloudy
1:32 PM 82.4 °F 90.9 °F 77.0 °F 84% 29.80 in 6.2 mi WNW 11.5 mph - N/A   Mostly Cloudy
1:37 PM 82.4 °F 90.9 °F 77.0 °F 84% 29.80 in 6.2 mi WNW 11.5 mph - N/A   Mostly Cloudy
2:00 PM 80.6 °F 87.1 °F 77.0 °F 89% 29.80 in 6.2 mi NW 10.4 mph - N/A   Overcast
3:00 PM 81 °F - 76 °F 80% 29.72 in - WNW 10.4 mph - -   Overcast
3:00 PM 80.6 °F 86.2 °F 75.2 °F 84% 29.77 in 6.2 mi WNW 10.4 mph - N/A   Mostly Cloudy
4:00 PM 80.6 °F 86.2 °F 75.2 °F 84% 29.74 in 6.2 mi NW 10.4 mph - N/A   Mostly Cloudy
5:00 PM 78.8 °F - 75.2 °F 89% 29.77 in 6.2 mi NW 11.5 mph 24.2 mph N/A Rain Light Rain Showers
6:00 PM 79 °F - 75 °F 85% 29.74 in - WNW 10.4 mph - -   Overcast
6:00 PM 78.8 °F - 75.2 °F 89% 29.77 in 6.2 mi WNW 10.4 mph 21.9 mph N/A   Overcast
7:00 PM 79 °F - 75 °F 84% 29.76 in - WNW 11.5 mph - -  
7:00 PM 78.8 °F - 75.2 °F 89% 29.80 in 6.2 mi WNW 11.5 mph - N/A   Mostly Cloudy
7:26 PM 78.8 °F - 75.2 °F 89% 29.80 in 6.2 mi North - - N/A   Mostly Cloudy
8:00 PM 78.8 °F - 75.2 °F 89% 29.83 in 6.2 mi WNW 9.2 mph - N/A   Overcast
9:00 PM 79 °F - 74 °F 81% 29.79 in - West 10.4 mph - -   Overcast
9:00 PM 78.8 °F - 75.2 °F 89% 29.83 in 6.2 mi West 10.4 mph - N/A   Overcast
10:00 PM 79 °F - 75 °F 85% 29.81 in - WNW 8.1 mph - -  
10:00 PM 78.8 °F - 75.2 °F 89% 29.86 in 6.2 mi WNW 8.1 mph - N/A   Overcast
11:00 PM 78.8 °F - 75.2 °F 89% 29.83 in 6.2 mi WNW 9.2 mph - N/A   Overcast